User: anonymous
Location: Fort Wayne
(41.1310°N, 85.1290°W)
Time: 14:40:45
(UTC-04:00)
Language:

Cosmos 2082 - Orbit

View from above orbital plane
View from above orbital plane
View from above satellite
View from above satellite

Ground track
Ground track

The orbit data is extracted from the following two-line orbital elements,

1 20624U 90046A   14107.97923517  .00000284  00000-0  17399-3 0  8983
2 20624 071.0400 114.3336 0015880 342.9857 042.3402 14.14068857233747
Epoch (UTC): 17 April 2014 23:30:05
Eccentricity: 0.0015880
inclination: 71.0400°
perigee height: 834 km
apogee height: 857 km
right ascension of ascending node: 114.3336°
argument of perigee: 342.9857°
revolutions per day: 14.14068857
mean anomaly at epoch: 42.3402°
orbit number at epoch: 23374

The dashed part of the orbit path shows where the satellite is in the earth's shadow,  

DLR